This is the latest recevied weather packets stored in our database for station/object N5SRF. If no packets are shown the sender has not sent any weather packets the latest 10 day(s).
| Time | Temp. | Humidity | Pressure | Rain* | Wind** | Luminosity | Snow |
|---|---|---|---|---|---|---|---|
| 1787955776 | 28.33° C | 74% | 1018.5 hPa | 0 mm | - | 72 W/m² | - |
| 1787955467 | 28.33° C | 75% | 1018.5 hPa | 0 mm | - | 72 W/m² | - |
| 1787955165 | 28.33° C | 75% | 1018.3 hPa | 0 mm | - | 72 W/m² | - |
| 1787954861 | 28.33° C | 77% | 1018 hPa | 0 mm | - | 69 W/m² | - |
| 1787954557 | 28.89° C | 77% | 1017.9 hPa | 0 mm | - | 63 W/m² | - |
| 1787954256 | 28.89° C | 77% | 1018.3 hPa | 0 mm | - | 53 W/m² | - |
| 1787953951 | 29.44° C | 75% | 1018.8 hPa | 0 mm | - | 44 W/m² | - |
| 1787953650 | 29.44° C | 73% | 1018.8 hPa | 0 mm | - | 37 W/m² | - |
| 1787953345 | 30° C | 69% | 1019.1 hPa | 0 mm | - | 30 W/m² | - |
| 1787953043 | 30.56° C | 66% | 1019.5 hPa | 0 mm | - | 23 W/m² | - |
| 1787952742 | 30.56° C | 67% | 1019.6 hPa | 0 mm | - | 20 W/m² | - |
| 1787952437 | 31.11° C | 67% | 1019.4 hPa | 0 mm | - | 24 W/m² | - |
| 1787952134 | 31.67° C | 65% | 1019.1 hPa | 0 mm | - | 31 W/m² | - |
| 1787951832 | 32.22° C | 63% | 1019.1 hPa | 0 mm | - | 37 W/m² | - |
| 1787951528 | 32.78° C | 61% | 1019.1 hPa | 0 mm | - | 47 W/m² | - |
| 1787951224 | 32.78° C | 59% | 1019 hPa | 0 mm | - | 55 W/m² | - |
| 1787950920 | 33.33° C | 62% | 1019.2 hPa | 0 mm | - | 68 W/m² | - |
| 1787950615 | 33.89° C | 62% | 1019.2 hPa | 0 mm | - | 78 W/m² | - |
| 1787950311 | 34.44° C | 61% | 1019 hPa | 0 mm | - | 86 W/m² | - |
| 1787950007 | 34.44° C | 60% | 1019 hPa | 0 mm | - | 99 W/m² | - |
| 1787949702 | 34.44° C | 58% | 1019 hPa | 0 mm | - | 113 W/m² | - |
| 1787949401 | 33.89° C | 57% | 1018.9 hPa | 0 mm | - | 116 W/m² | - |
| 1787949096 | 33.89° C | 57% | 1018.9 hPa | 0 mm | - | 114 W/m² | - |
| 1787948793 | 33.89° C | 58% | 1018.9 hPa | 0 mm | - | 109 W/m² | - |
| 1787948492 | 33.89° C | 56% | 1018.8 hPa | 0 mm | - | 113 W/m² | - |
* Rain latest hour (hover to see other rain measurements)
** Current wind speed in m/s (hover to see current wind gust speed)